THOR ABLESTAR DEB, 232

Orbit data source: Space-Track

THOR ABLESTAR DEB, 232 is space debris in LEO originally from a launch on Thu, 29 Jun 1961 UTC launched from the Air Force Eastern Test Range (AFETR). Debris objects in space refer to the collection of defunct objects orbiting the Earth. Examples of debris include non-operational satellites, rocket bodies, and fragments generated from explosions, collisions, or faulty payload assembly.

Loading next visibility...
Identifier
232, 1961-015BQ
Orbit
LEO
Country
Flag of USUS
Related business
Manufacturer
Unknown
Mission
Spacecraft
Bus & Motor
Unknown
Mass
Unknown
Launch date (UTC)
1961-06-29 (65 years ago)
Launch vehicle
Unknown
Launch site
Air Force Eastern Test Range (AFETR)
Object type
Payload
Rocket body
Debris
Shape & HBR
Unknown shape, 0.2 m
Radar Cross Section
Medium (>0.1 m² and <1 m²)

Expand to show TLE details & history
Last TLE update: 23 hours ago

TLE from 23 hours ago
0 THOR ABLESTAR DEB
1 00232U 61015BQ  26145.34128847  .00000124  00000-0  13437-3 0  9993
2 00232  66.8208 270.1616 0051299 125.3755 235.2138 14.00786678303799
Epoch: 2026-05-25T08:11Z
TLE epoch observation values (Epoch: 2026-05-25T08:11:27.323Z)
Latitude
-0.00006°
Longitude
-95.63274°
Altitude
914.566 km
Speed
7.384 km/s
True Right ascension
18h 00m 38s
True Declination
0° 00' 00"
Sunlit
Object was in full shadow at epoch
Visualization orbit readout
Latitude
Unknown
Longitude
Unknown
Altitude
Unknown
Speed
Unknown
Apparent Right ascension
Unknown
Apparent Declination
Unknown
Sunlit
N/A
Visualization observer readout
Local Sidereal Time
16:13:12
Azimuth
Unknown
Elevation
Unknown
Doppler factor
Unknown
Orbital elements
Apogee altitude
926.738 km
Perigee altitude
852.174 km
Semi-major axis
7,267.593 km
Eccentricity
0.00513
Inclination
66.8208°
RAAN
270.1616°
Arg. of periapsis
125.3755°
True anomaly
234.73278°
Mean anomaly
235.2138°
Eccentric anomaly
234.97311°
Mean motion
3.50314 °/min
Orbital period
102.76 mins
BSTAR
0.00013437
Loading maneuver chart data...
Computing Atmospheric mass density...

Documentation

Showing up to 5 results
|